Date,TemperatureHighF,TemperatureAvgF,TemperatureLowF,DewpointHighF,DewpointAvgF,DewpointLowF,HumidityHigh,HumidityAvg,HumidityLow,PressureMaxIn,PressureMinIn,WindSpeedMaxMPH,WindSpeedAvgMPH,GustSpeedMaxMPH,PrecipitationSumIn
2013-2-1,41.0,31.5,19.7,28.2,21.5,14.5,82,67,54,29.89,29.70,24,8,24,0.00
2013-2-2,48.7,31.8,20.1,20.5,16.8,12.4,80,57,27,29.96,29.88,38,9,38,0.00
2013-2-3,46.0,34.8,25.7,18.7,16.5,13.8,65,48,31,29.89,29.63,35,11,35,0.00
2013-2-4,49.6,36.2,24.4,19.0,15.4,11.7,62,44,27,29.68,29.56,34,9,34,0.00
2013-2-5,49.8,37.6,23.5,23.5,18.7,13.2,67,48,32,29.70,29.54,30,10,30,0.00
2013-2-6,46.5,37.3,24.6,22.0,18.8,14.9,78,49,33,29.79,29.52,22,5,22,0.00
2013-2-7,43.5,30.9,15.4,18.5,12.4,7.0,84,51,27,29.81,29.65,33,9,33,0.00
2013-2-8,49.8,35.9,27.1,23.6,15.0,6.6,77,44,27,29.67,29.49,18,5,18,0.00
2013-2-9,28.4,25.8,23.5,23.7,21.2,18.3,88,83,72,29.55,29.40,17,5,17,0.00
2013-2-10,28.0,18.6,1.9,21.0,13.1,-3.1,88,79,65,29.74,29.45,19,5,19,0.00
2013-2-11,23.5,12.5,-0.2,11.4,4.3,-5.2,83,70,55,29.74,29.65,23,8,23,0.00
2013-2-12,25.8,20.7,14.5,14.8,9.7,3.8,68,62,57,29.75,29.69,36,18,36,0.00
2013-2-13,40.6,29.7,22.6,25.6,19.6,13.8,83,67,52,29.73,29.62,36,13,36,0.00
2013-2-14,27.6,23.4,19.5,23.5,16.7,12.2,86,76,62,29.94,29.72,26,5,26,0.00
2013-2-15,35.4,25.1,12.5,24.0,16.6,8.6,86,71,52,29.98,29.86,18,4,18,0.02
2013-2-16,42.9,34.3,26.2,23.1,19.2,15.4,64,54,42,29.87,29.59,39,17,39,0.00
2013-2-17,45.6,34.5,24.6,25.1,18.1,12.8,83,54,33,29.61,29.39,37,13,37,0.00
2013-2-18,34.3,23.7,10.2,21.3,13.7,3.7,83,67,38,29.73,29.60,19,4,19,0.00
2013-2-19,44.4,24.5,6.9,20.1,10.5,2.6,86,60,27,29.71,29.45,26,4,26,0.00
2013-2-20,41.5,25.6,15.4,20.5,15.5,10.6,83,67,41,29.49,29.39,18,6,18,0.00
2013-2-21,28.7,22.2,15.2,20.1,16.3,9.7,88,78,67,29.59,29.49,15,5,15,0.00
2013-2-22,36.1,23.4,12.0,20.4,10.5,5.7,86,61,31,29.63,29.48,32,10,32,0.00
2013-2-23,39.0,29.1,22.8,24.3,17.4,9.5,88,63,46,29.51,29.36,41,18,41,0.00
2013-2-24,30.9,22.5,11.4,21.3,16.8,6.9,87,79,61,29.78,29.51,27,7,27,0.00
2013-2-25,30.7,23.1,9.1,15.2,11.1,4.4,83,61,50,29.75,29.52,39,18,39,0.00
2013-2-26,31.6,24.6,15.4,23.2,18.6,11.0,86,78,54,29.86,29.54,30,6,30,0.02
2013-2-27,27.6,19.3,9.1,15.9,10.8,4.7,85,70,57,29.92,29.85,30,10,30,0.00
2013-2-28,34.3,24.3,15.6,17.6,11.7,7.4,73,59,43,29.94,29.85,32,10,32,0.00